Date String (YYYY-MM-DD hh:mm:ss) UTC,Instrument flags,Ambient pressure (hPa),Sample flow (lpm),Bypass flow (lpm),Sample temperature (°C),Ambient temperature (°C),ASC tube jacket temperature (°C),LED temperature (°C),Box temperature (°C),Sample RH (%),Span deviation,Mass concentration (μg/m³),Mass concentration (μg/m³),Mass concentration (μg/m³)
DateTimeUTC,F1_M11,P_M11,Q1_M11,Q2_M11,T1_M11,T2_M11,T3_M11,T4_M11,T5_M11,U1_M11,ZSPAN_M11,X2_M11,X0_M11,X1_M11
2021-12-31 01:00:00,,0808.2,5.00,0.00,21.7,21.0,00.0,30.9,23.3,08.5,0000.0,0000.41,0003.53,0000.13
2021-12-31 01:01:00,,0808.1,4.99,0.00,21.7,20.9,00.0,30.9,23.3,08.5,0000.0,0000.35,0003.25,0000.13
2021-12-31 01:02:00,,0807.8,5.00,0.00,21.7,21.0,00.0,30.9,23.3,08.3,0000.0,0000.31,0003.61,0000.13
2021-12-31 01:03:00,,0807.8,5.00,0.00,21.7,20.9,00.0,30.9,23.3,08.4,0000.0,0000.29,0001.99,0000.13
2021-12-31 01:04:00,,0807.9,4.99,0.00,21.6,20.8,00.0,30.9,23.2,08.4,0000.0,0000.27,0001.65,0000.12
2021-12-31 01:05:00,,0808.1,4.99,0.00,21.6,20.8,00.0,30.8,23.2,08.5,0000.0,0000.25,0001.62,0000.11
2021-12-31 01:06:00,,0808.2,5.00,0.00,21.6,20.8,00.0,30.8,23.1,08.5,0000.0,0000.28,0001.73,0000.11
2021-12-31 01:07:00,,0808.2,4.99,0.00,21.6,20.8,00.0,30.8,23.1,08.5,0000.0,0000.30,0001.82,0000.12
2021-12-31 01:08:00,,0808.5,4.99,0.00,21.6,20.8,00.0,30.8,23.2,08.4,0000.0,0000.29,0002.08,0000.12
2021-12-31 01:09:00,,0808.5,5.00,0.00,21.6,21.3,00.0,30.8,23.4,08.4,0000.0,0000.28,0002.05,0000.11
2021-12-31 01:10:00,,0808.7,4.99,0.00,21.8,22.3,00.0,30.8,23.7,08.3,0000.0,0000.30,0002.42,0000.11
2021-12-31 01:11:00,,0808.2,5.01,0.00,22.0,23.1,00.0,30.9,24.0,08.2,0000.0,0000.32,0002.76,0000.12
2021-12-31 01:12:00,,0808.4,4.99,0.00,22.1,23.0,00.0,30.9,24.1,08.1,0000.0,0000.31,0003.09,0000.11
2021-12-31 01:13:00,,0807.9,5.01,0.00,22.1,22.7,00.0,30.9,24.0,08.2,0000.0,0000.30,0002.30,0000.10
2021-12-31 01:14:00,,0807.9,5.00,0.00,22.0,22.3,00.0,30.9,23.8,08.1,0000.0,0000.32,0001.96,0000.11
2021-12-31 01:15:00,,0808.0,4.99,0.00,22.0,22.1,00.0,30.9,23.8,08.1,0000.0,0000.33,0001.98,0000.12
2021-12-31 01:16:00,,0807.7,5.01,0.00,22.0,21.9,00.0,31.0,23.7,08.1,0000.0,0000.33,0001.96,0000.12
2021-12-31 01:17:00,,0807.7,4.96,0.00,22.0,21.8,00.0,31.0,23.7,08.0,0000.0,0000.31,0001.92,0000.12
2021-12-31 01:29:00,,1013.0,4.99,0.00,07.4,21.6,00.0,26.0,20.7,35.0,0000.0,0000.00,0000.00,0000.00
2021-12-31 01:30:00,,0872.0,5.00,0.00,15.5,23.2,00.0,24.1,24.2,16.5,0000.0,0000.07,0000.20,0000.03
2021-12-31 01:31:00,,0808.0,5.00,0.00,22.4,22.5,00.0,26.4,23.9,08.1,0000.0,0000.30,0002.16,0000.10
2021-12-31 01:32:00,,0808.0,5.01,0.00,22.2,22.1,00.0,28.0,23.7,08.1,0000.0,0000.28,0004.99,0000.09
2021-12-31 01:33:00,,0807.8,5.00,0.00,22.1,21.9,00.0,28.9,23.5,08.1,0000.0,0000.28,0003.53,0000.09
2021-12-31 01:34:00,,0807.9,5.00,0.00,22.1,21.7,00.0,29.4,23.5,08.1,0000.0,0000.29,0002.73,0000.10
2021-12-31 01:35:00,,0808.0,5.00,0.00,22.0,21.6,00.0,29.8,23.4,08.2,0000.0,0000.33,0002.34,0000.10
2021-12-31 01:36:00,,0808.2,4.99,0.00,21.9,21.5,00.0,30.1,23.4,08.4,0000.0,0000.31,0001.99,0000.10
2021-12-31 01:37:00,,0808.1,5.00,0.00,21.9,21.4,00.0,30.2,23.3,08.3,0000.0,0000.29,0001.74,0000.10
2021-12-31 01:38:00,,0808.1,5.00,0.00,21.8,21.3,00.0,30.3,23.3,08.3,0000.0,0000.30,0001.68,0000.10
2021-12-31 01:39:00,,0808.2,4.98,0.00,21.8,21.3,00.0,30.4,23.3,08.3,0000.0,0000.30,0001.56,0000.10
2021-12-31 01:40:00,,0808.2,5.01,0.00,21.8,21.2,00.0,30.5,23.4,08.4,0000.0,0000.29,0001.45,0000.11
2021-12-31 01:41:00,,0808.2,4.99,0.00,21.8,21.2,00.0,30.5,23.3,08.5,0000.0,0000.30,0001.39,0000.11
2021-12-31 01:42:00,,0808.2,5.00,0.00,21.7,21.1,00.0,30.5,23.3,08.7,0000.0,0000.31,0001.29,0000.11
2021-12-31 01:43:00,,0808.2,5.01,0.00,21.7,21.0,00.0,30.6,23.3,08.8,0000.0,0000.31,0001.67,0000.11
2021-12-31 01:44:00,,0808.1,4.99,0.00,21.7,21.0,00.0,30.6,23.2,08.6,0000.0,0000.31,0002.32,0000.11
2021-12-31 01:45:00,,0808.0,4.99,0.00,21.7,21.0,00.0,30.6,23.1,08.5,0000.0,0000.31,0002.31,0000.11
2021-12-31 01:46:00,,0808.1,4.99,0.00,21.6,21.0,00.0,30.6,23.1,08.6,0000.0,0000.28,0002.27,0000.11
2021-12-31 01:47:00,,0808.1,5.00,0.00,21.6,20.9,00.0,30.6,23.1,08.7,0000.0,0000.30,0002.32,0000.11
2021-12-31 01:48:00,,0808.1,5.01,0.00,21.5,20.8,00.0,30.6,23.0,08.7,0000.0,0000.33,0002.42,0000.11
2021-12-31 01:49:00,,0808.3,4.99,0.00,21.5,20.8,00.0,30.6,23.0,08.7,0000.0,0000.32,0002.41,0000.11
2021-12-31 01:50:00,,0808.1,5.01,0.00,21.5,20.7,00.0,30.6,23.0,08.7,0000.0,0000.31,0002.39,0000.11
2021-12-31 01:51:00,,0808.1,5.00,0.00,21.4,20.7,00.0,30.5,22.9,08.7,0000.0,0000.32,0003.28,0000.11
2021-12-31 01:52:00,,0808.2,4.98,0.00,21.5,21.2,00.0,30.6,23.1,08.7,0000.0,0000.34,0004.75,0000.11
2021-12-31 01:53:00,,0808.1,5.00,0.00,21.6,22.1,00.0,30.6,23.5,08.6,0000.0,0000.35,0004.85,0000.11
2021-12-31 01:54:00,,0808.1,5.02,0.00,21.8,22.8,00.0,30.7,23.8,08.6,0000.0,0000.34,0004.47,0000.11
2021-12-31 01:55:00,,0808.0,5.00,0.00,21.9,22.7,00.0,30.7,23.9,08.5,0000.0,0000.34,0004.13,0000.11
2021-12-31 01:56:00,,0808.1,5.00,0.00,21.9,22.4,00.0,30.7,23.8,08.5,0000.0,0000.34,0005.62,0000.11
2021-12-31 01:57:00,,0808.1,5.01,0.00,21.9,22.2,00.0,30.8,23.7,08.5,0000.0,0000.36,0007.11,0000.11
2021-12-31 01:58:00,,0808.1,4.99,0.00,21.9,22.1,00.0,30.8,23.7,08.6,0000.0,0000.34,0008.34,0000.11
2021-12-31 01:59:00,,0808.0,5.00,0.00,21.9,21.9,00.0,30.8,23.7,08.6,0000.0,0000.32,0008.44,0000.11
